Location: Feudal
(51.8839°N, 107.6105°W)
Time: 04:36:30
(UTC+00:00)

Envisat - Pass Details

Date: 29 January 2022
Orbit: 764 x 765 km, 98.2° (Epoch: 25 May)

Event Time Altitude Azimuth Distance (km) Brightness Sun altitude
Rises 10:45:27 0° 26° (NNE) 3,244 6.8 -38.0°
Reaches altitude 10° 10:48:37 10° 47° (NE) 2,312 6.1 -37.5°
Maximum altitude 10:51:52 17° 87° (E) 1,874 5.6 -37.0°
Drops below altitude 10° 10:55:06 10° 127° (SE) 2,302 5.8 -36.6°
Sets 10:58:14 0° 148° (SSE) 3,222 6.4 -36.1°
